Skip Page Navigation
NASA JPL Caltech
NASA Logo - Jet Propulsion Laboratory + View the NASA Portal
+ Near-Earth Object (NEO) Program
Search JPL
JPL Home Earth Solar System Stars & Galaxies Technology
JPL Solar System Dynamics
BODIES ORBITS EPHEMERIDES TOOLS PHYSICAL DATA DISCOVERY FAQ SITE MAP
JPL Small-Body Database Browser
Search: [ help ]  
26110 (1991 NK4)
Classification: Main-belt Asteroid          SPK-ID: 2026110
Ephemeris | Orbit Diagram | Orbital Elements | Physical Parameters | Discovery Circumstances | Close-Approach Data ]

[ show orbit diagram ]
Orbital Elements at Epoch 2456800.5 (2014-May-23.0) TDB
Reference: JPL 6 (heliocentric ecliptic J2000)
 Element Value Uncertainty (1-sigma)   Units 
e .208417679611602 6.2538e-08  
a 2.217092144713579 1.2047e-08 AU
q 1.755010944427265 1.3727e-07 AU
i 6.787197611182447 7.0233e-06 deg
node 123.0761666913502 4.9732e-05 deg
peri 176.8508907578965 5.2305e-05 deg
M 327.0182859226226 2.0545e-05 deg
tp 2456910.970104125871
(2014-Sep-10.47010413)
6.9442e-05 JED
period 1205.796563271761
3.30
9.8279e-06
2.691e-08
d
yr
n .2985578255615443 2.4334e-09 deg/d
Q 2.679173344999894 1.4558e-08 AU
  Orbit Determination Parameters
   # obs. used (total)      966  
   data-arc span      10960 days (30.01 yr)  
   first obs. used      1984-03-07  
   last obs. used      2014-03-10  
   planetary ephem.      DE431  
   SB-pert. ephem.      SB431-BIG16  
   condition code      0  
   fit RMS      .55532  
   data source      ORB  
   producer      Otto Matic  
   solution date      2014-Mar-22 11:21:42  

Additional Information
 Earth MOID = .738648 AU 
 T_jup = 3.615 
[ show covariance matrix ]

Ephemeris | Orbit Diagram | Orbital Elements | Physical Parameters | Discovery Circumstances | Close-Approach Data ]

Physical Parameter Table
Parameter Symbol Value Units Sigma Reference Notes
absolute magnitude H 14.0 mag n/a MPO263573  

26110 (1991 NK4)          Discovered 1991-Jul-08 by Debehogne, H. at La Silla (809)
Reference: 20010705/Numbers.arcLast Updated: 2004-04-19

[ show close-approach data ]
Alternate Designations
 1991 NK4 = 2000 AL162 
Ephemeris | Orbit Diagram | Orbital Elements | Physical Parameters | Discovery Circumstances | Close-Approach Data ]
ABOUT SSD CREDITS/AWARDS PRIVACY/COPYRIGHT GLOSSARY LINKS
FirstGov 2014-Apr-24 08:49 UT
(server date/time)  
NASA Home Page
Site Manager:   Donald K. Yeomans
Webmaster  Alan B. Chamberlin